[keps] orb06320.amsat
Ray Hoad
r.hoad at att.net
Thu Nov 16 19:39:43 PST 2006
SB KEPS @ AMSAT $ORB06320.O
Orbital Elements 06320.OSCAR
HR AMSAT ORBITAL ELEMENTS FOR OSCAR SATELLITES
FROM WA5QGD FORT WORTH,TX November 16, 2006
Send SUBSCRIBE KEPS/UNSUBSCRIBE KEPS to majordomo at amsat.org only
BID: ORB06320.O
TO ALL RADIO AMATEURS BT
Satellite: AO-07
Catalog number: 07530
Epoch time: 06320.53708311
Element set: 730
Inclination: 101.5483 deg
RA of node: 359.5498 deg
Eccentricity: 0.0011894
Arg of perigee: 310.2334 deg
Mean anomaly: 049.7698 deg
Mean motion: 12.53571810 rev/day
Decay rate: -2.8e-07 rev/day^2
Epoch rev: 46447
Checksum: 298
Satellite: UO-11
Catalog number: 14781
Epoch time: 06319.61487428
Element set: 226
Inclination: 098.2049 deg
RA of node: 333.0378 deg
Eccentricity: 0.0009751
Arg of perigee: 133.8795 deg
Mean anomaly: 226.3253 deg
Mean motion: 14.79484603 rev/day
Decay rate: 4.05e-06 rev/day^2
Epoch rev: 21815
Checksum: 314
Satellite: RS-10/11
Catalog number: 18129
Epoch time: 06319.78771684
Element set: 0158
Inclination: 082.9273 deg
RA of node: 216.0087 deg
Eccentricity: 0.0012970
Arg of perigee: 037.1601 deg
Mean anomaly: 323.0444 deg
Mean motion: 13.72780623 rev/day
Decay rate: 6.0e-08 rev/day^2
Epoch rev: 97195
Checksum: 305
Satellite: RS-15
Catalog number: 23439
Epoch time: 06319.59024964
Element set: 0995
Inclination: 064.8220 deg
RA of node: 352.3599 deg
Eccentricity: 0.0165562
Arg of perigee: 228.0771 deg
Mean anomaly: 130.5937 deg
Mean motion: 11.27551785 rev/day
Decay rate: -3.9e-07 rev/day^2
Epoch rev: 48961
Checksum: 340
Satellite: FO-29
Catalog number: 24278
Epoch time: 06319.92215128
Element set: 0374
Inclination: 098.5220 deg
RA of node: 303.5326 deg
Eccentricity: 0.0349916
Arg of perigee: 276.2472 deg
Mean anomaly: 079.8925 deg
Mean motion: 13.52925375 rev/day
Decay rate: 7.9e-07 rev/day^2
Epoch rev: 50606
Checksum: 333
Satellite: SO-33
Catalog number: 25509
Epoch time: 06319.57538123
Element set: 0793
Inclination: 031.4357 deg
RA of node: 353.4382 deg
Eccentricity: 0.0355228
Arg of perigee: 359.9120 deg
Mean anomaly: 000.1404 deg
Mean motion: 14.28137636 rev/day
Decay rate: 2.87e-06 rev/day^2
Epoch rev: 42069
Checksum: 302
Satellite: VO-52
Catalog number: 28650
Epoch time: 06319.78371357
Element set: 0482
Inclination: 097.8576 deg
RA of node: 030.0091 deg
Eccentricity: 0.0026478
Arg of perigee: 226.8295 deg
Mean anomaly: 133.0695 deg
Mean motion: 14.81209655 rev/day
Decay rate: 6.35e-06 rev/day^2
Epoch rev: 08282
Checksum: 330
/EX
SB KEPS @ AMSAT $ORB06320.D
Orbital Elements 06320.MICROS
HR AMSAT ORBITAL ELEMENTS FOR THE MICROSATS
FROM WA5QGD FORT WORTH,TX November 16, 2006
Send SUBSCRIBE KEPS/UNSUBSCRIBE KEPS to majordomo at amsat.org only
BID: ORB06320.D
TO ALL RADIO AMATEURS BT
Satellite: AO-16
Catalog number: 20439
Epoch time: 06320.57063256
Element set: 895
Inclination: 098.1897 deg
RA of node: 321.9648 deg
Eccentricity: 0.0011849
Arg of perigee: 098.4971 deg
Mean anomaly: 261.7555 deg
Mean motion: 14.31739686 rev/day
Decay rate: 2.5e-07 rev/day^2
Epoch rev: 87812
Checksum: 351
Satellite: LO-19
Catalog number: 20442
Epoch time: 06319.94610932
Element set: 0829
Inclination: 098.1853 deg
RA of node: 330.8941 deg
Eccentricity: 0.0012923
Arg of perigee: 100.6118 deg
Mean anomaly: 259.6521 deg
Mean motion: 14.31981638 rev/day
Decay rate: 1.6e-07 rev/day^2
Epoch rev: 87817
Checksum: 313
Satellite: AO-27
Catalog number: 22825
Epoch time: 06319.80941378
Element set: 545
Inclination: 098.3027 deg
RA of node: 294.3415 deg
Eccentricity: 0.0008131
Arg of perigee: 167.2124 deg
Mean anomaly: 192.9253 deg
Mean motion: 14.29190131 rev/day
Decay rate: 9.2e-07 rev/day^2
Epoch rev: 68501
Checksum: 298
Satellite: IO-26
Catalog number: 22826
Epoch time: 06319.54335998
Element set: 237
Inclination: 098.2968 deg
RA of node: 295.2446 deg
Eccentricity: 0.0008798
Arg of perigee: 166.1355 deg
Mean anomaly: 194.0068 deg
Mean motion: 14.29434393 rev/day
Decay rate: 3.5e-07 rev/day^2
Epoch rev: 68505
Checksum: 351
Satellite: PO-28
Catalog number: 22829
Epoch time: 06320.51315564
Element set: 522
Inclination: 098.2867 deg
RA of node: 297.3624 deg
Eccentricity: 0.0010299
Arg of perigee: 138.8242 deg
Mean anomaly: 221.3706 deg
Mean motion: 14.30131625 rev/day
Decay rate: 7.9e-07 rev/day^2
Epoch rev: 68541
Checksum: 303
Satellite: GO-32
Catalog number: 25397
Epoch time: 06319.70462057
Element set: 0159
Inclination: 098.4473 deg
RA of node: 010.9015 deg
Eccentricity: 0.0001966
Arg of perigee: 114.6742 deg
Mean anomaly: 245.4652 deg
Mean motion: 14.23113815 rev/day
Decay rate: -1.19e-06 rev/day^2
Epoch rev: 43379
Checksum: 299
Satellite: MO-46
Catalog number: 26548
Epoch time: 06320.44308142
Element set: 648
Inclination: 064.5551 deg
RA of node: 120.7882 deg
Eccentricity: 0.0038410
Arg of perigee: 225.6547 deg
Mean anomaly: 134.1450 deg
Mean motion: 14.83048369 rev/day
Decay rate: 2.01e-06 rev/day^2
Epoch rev: 33198
Checksum: 292
Satellite: NO-44
Catalog number: 26931
Epoch time: 06319.55021399
Element set: 0451
Inclination: 067.0541 deg
RA of node: 337.7984 deg
Eccentricity: 0.0004983
Arg of perigee: 262.8054 deg
Mean anomaly: 097.2482 deg
Mean motion: 14.29460876 rev/day
Decay rate: 7.0e-07 rev/day^2
Epoch rev: 26756
Checksum: 330
Satellite: SO-50
Catalog number: 27607
Epoch time: 06319.68559348
Element set: 171
Inclination: 064.5599 deg
RA of node: 013.2054 deg
Eccentricity: 0.0034976
Arg of perigee: 080.4888 deg
Mean anomaly: 280.0165 deg
Mean motion: 14.71194422 rev/day
Decay rate: 1.23e-06 rev/day^2
Epoch rev: 20971
Checksum: 313
Satellite: CO-55
Catalog number: 27844
Epoch time: 06319.60767501
Element set: 894
Inclination: 098.7212 deg
RA of node: 325.8280 deg
Eccentricity: 0.0010139
Arg of perigee: 352.0233 deg
Mean anomaly: 008.0787 deg
Mean motion: 14.20470277 rev/day
Decay rate: 8.9e-07 rev/day^2
Epoch rev: 17515
Checksum: 307
Satellite: CO-57
Catalog number: 27848
Epoch time: 06320.58767834
Element set: 859
Inclination: 098.7199 deg
RA of node: 326.0736 deg
Eccentricity: 0.0009804
Arg of perigee: 352.5088 deg
Mean anomaly: 007.5931 deg
Mean motion: 14.20295282 rev/day
Decay rate: 4.2e-07 rev/day^2
Epoch rev: 17527
Checksum: 343
Satellite: AO-51
Catalog number: 28375
Epoch time: 06320.67917711
Element set: 677
Inclination: 098.1441 deg
RA of node: 005.6068 deg
Eccentricity: 0.0084692
Arg of perigee: 105.6194 deg
Mean anomaly: 255.4365 deg
Mean motion: 14.40541909 rev/day
Decay rate: 4.0e-07 rev/day^2
Epoch rev: 12511
Checksum: 300
Satellite: CO-56
Catalog number: 28941
Epoch time: 06320.86617260
Element set: 261
Inclination: 098.1614 deg
RA of node: 354.4580 deg
Eccentricity: 0.0257976
Arg of perigee: 299.9661 deg
Mean anomaly: 057.6206 deg
Mean motion: 15.30648655 rev/day
Decay rate: 2.0019e-04 rev/day^2
Epoch rev: 4085
Checksum: 333
Satellite: HO-59
Catalog number: 29484
Epoch time: 06320.52604999
Element set: 69
Inclination: 098.3165 deg
RA of node: 335.4872 deg
Eccentricity: 0.0265772
Arg of perigee: 299.5418 deg
Mean anomaly: 057.9398 deg
Mean motion: 15.34895764 rev/day
Decay rate: 3.8457e-04 rev/day^2
Epoch rev: 828
Checksum: 388
/EX
SB KEPS @ AMSAT $ORB06320.W
Orbital Elements 06320.WEATHER
HR AMSAT ORBITAL ELEMENTS FOR WEATHER SATELLITES
FROM WA5QGD FORT WORTH,TX November 16, 2006
Send SUBSCRIBE KEPS/UNSUBSCRIBE KEPS to majordomo at amsat.org only
BID: ORB06320.W
TO ALL RADIO AMATEURS BT
Satellite: NOAA-10
Catalog number: 16969
Epoch time: 06319.63477841
Element set: 0425
Inclination: 098.7577 deg
RA of node: 331.5789 deg
Eccentricity: 0.0013203
Arg of perigee: 070.2441 deg
Mean anomaly: 290.0161 deg
Mean motion: 14.27309166 rev/day
Decay rate: 8.9e-07 rev/day^2
Epoch rev: 04876
Checksum: 319
Satellite: NOAA-11
Catalog number: 19531
Epoch time: 06319.84285361
Element set: 0379
Inclination: 098.8224 deg
RA of node: 046.5860 deg
Eccentricity: 0.0011000
Arg of perigee: 278.9558 deg
Mean anomaly: 081.0349 deg
Mean motion: 14.14825298 rev/day
Decay rate: -8.6e-07 rev/day^2
Epoch rev: 93598
Checksum: 333
Satellite: NOAA-12
Catalog number: 21263
Epoch time: 06319.92740139
Element set: 0874
Inclination: 098.7424 deg
RA of node: 312.6633 deg
Eccentricity: 0.0013023
Arg of perigee: 010.5269 deg
Mean anomaly: 349.6172 deg
Mean motion: 14.25514869 rev/day
Decay rate: 8.5e-07 rev/day^2
Epoch rev: 80586
Checksum: 308
Satellite: MET-3/5
Catalog number: 21655
Epoch time: 06319.92564393
Element set: 0193
Inclination: 082.5548 deg
RA of node: 153.6155 deg
Eccentricity: 0.0013991
Arg of perigee: 024.9991 deg
Mean anomaly: 335.1805 deg
Mean motion: 13.17008524 rev/day
Decay rate: 5.1e-07 rev/day^2
Epoch rev: 73333
Checksum: 307
Satellite: MET-2/21
Catalog number: 22782
Epoch time: 06320.25635787
Element set: 670
Inclination: 082.5496 deg
RA of node: 210.8124 deg
Eccentricity: 0.0023675
Arg of perigee: 111.8558 deg
Mean anomaly: 248.5128 deg
Mean motion: 13.83610778 rev/day
Decay rate: 3.5e-07 rev/day^2
Epoch rev: 66707
Checksum: 316
Satellite: OKEAN-4
Catalog number: 23317
Epoch time: 06319.68861402
Element set: 0107
Inclination: 082.5371 deg
RA of node: 135.7091 deg
Eccentricity: 0.0020877
Arg of perigee: 234.1938 deg
Mean anomaly: 125.7306 deg
Mean motion: 14.82424504 rev/day
Decay rate: 4.87e-06 rev/day^2
Epoch rev: 65242
Checksum: 294
Satellite: NOAA-14
Catalog number: 23455
Epoch time: 06319.76188233
Element set: 0372
Inclination: 099.0197 deg
RA of node: 019.5110 deg
Eccentricity: 0.0009169
Arg of perigee: 347.7254 deg
Mean anomaly: 012.3678 deg
Mean motion: 14.13676717 rev/day
Decay rate: -2.16e-06 rev/day^2
Epoch rev: 61248
Checksum: 313
Satellite: SICH-1
Catalog number: 23657
Epoch time: 06320.73131105
Element set: 909
Inclination: 082.5270 deg
RA of node: 275.6224 deg
Eccentricity: 0.0022726
Arg of perigee: 219.1326 deg
Mean anomaly: 140.8256 deg
Mean motion: 14.81415018 rev/day
Decay rate: 4.06e-06 rev/day^2
Epoch rev: 60457
Checksum: 270
